Location: ??????????
(31.2156°N, 29.9553°E)
Time: 04:53:21
(UTC+00:00)

ERS-2 - Pass Details

Date: 03 March 2021
Orbit: 492 x 496 km, 98.6° (Epoch: 14 April)

Event Time Altitude Azimuth Distance (km) Brightness Sun altitude
Rises 16:52:05 0° 8° (N) 2,584 5.7 -11.9°
Reaches altitude 10° 16:54:11 10° 5° (N) 1,698 4.8 -12.4°
Maximum altitude 16:57:47 61° 285° (WNW) 569 2.7 -13.2°
Drops below altitude 10° 17:01:22 10° 204° (SSW) 1,688 5.1 -13.9°
Sets 17:03:26 0° 201° (SSW) 2,566 6.0 -14.4°
